[[{"header":{"parameterUnit":"m.s-1","parameterCategory":1,"la1":30.2992,"la2":30.254,"lo1":-89.0895,"lo2":-89.0443,"dy":0.0025,"dx":0.0025,"nx":19,"ny":19,"refTime":"2026-05-16T03:00:00:Z","depth":0,"parameterNumber":2,"parameterNumberName":"U-component_of_WINDS"},"data":[0,0,0,-3.5336,-3.5336,-3.5335,-3.5334,-3.5349,-3.5349,0,0,0,0,0,0,0,0,0,0,0,-3.5346,-3.5347,-3.5336,-3.5336,-3.5335,-3.5334,-3.5349,-3.5349,0,0,0,0,0,0,0,0,0,0,0,-3.5346,-3.5347,-3.5347,-3.5336,-3.5335,-3.5334,-3.5349,-3.5344,0,0,0,0,0,0,0,0,0,0,-3.5343,-3.5362,-3.5347,-3.5347,-3.5336,-3.5335,-3.5334,-3.5344,-3.5344,-3.5357,0,-3.537,0,-3.536,-3.5351,-3.5351,0,0,0,-3.5329,-3.5361,-3.5352,-3.5347,-3.5336,-3.5335,-3.5333,-3.5344,-3.5345,-3.5358,-3.537,-3.537,-3.536,-3.5351,-3.5352,-3.5449,-3.545,0,0,-3.5329,-3.5351,-3.5352,-3.5353,-3.5355,-3.5333,-3.5333,-3.5344,-3.5359,-3.537,-3.537,-3.5361,-3.5352,-3.5352,-3.5448,-3.5449,0,0,0,-3.5334,-3.5352,-3.5342,-3.5353,-3.5352,-3.5333,-3.5333,-3.5358,-3.5353,-3.537,-3.5361,-3.5352,-3.5352,-3.5447,-3.5448,-3.5509,0,0,0,-3.5334,-3.5355,-3.5342,-3.5356,-3.5352,-3.5355,-3.5348,-3.5353,-3.5353,-3.5361,-3.5352,-3.5352,-3.5446,-3.5448,-3.5506,-3.5533,0,0,0,-3.5343,-3.5355,-3.5359,-3.5357,-3.5357,-3.5354,-3.535,-3.5352,-3.5348,-3.5351,-3.5352,-3.5446,-3.5448,-3.5502,-3.5528,-3.5565,0,0,0,-3.5359,-3.5412,-3.536,-3.5416,-3.5357,-3.5393,-3.5349,-3.5374,-3.5385,-3.5352,-3.5446,-3.5448,-3.5501,-3.5525,-3.5562,-3.5599,-3.5617,0,0,-3.5438,-3.5423,-3.5454,-3.5407,-3.5457,-3.5391,-3.5451,-3.5439,-3.5419,-3.544,-3.5442,-3.5507,-3.5528,-3.5564,-3.5714,-3.5729,0,0,0,-3.5486,-3.5509,-3.5518,-3.5529,-3.5523,-3.5519,-3.5496,-3.5492,-3.551,-3.5434,-3.5531,-3.5542,-3.5563,-3.558,-3.5592,-3.5608,-3.5458,-3.5457,-3.5457,-3.5628,-3.5601,-3.5651,-3.5625,-3.5637,-3.5614,-3.5622,-3.5612,-3.558,-3.5604,-3.5609,-3.5704,-3.5724,-3.5733,-3.575,-3.5629,-3.5629,-3.5629,-3.5629,-3.5741,-3.5768,-3.5727,-3.5761,-3.5733,-3.5761,-3.5742,-3.572,-3.5742,-3.5697,-3.5714,-3.5665,-3.575,-3.5764,-3.5634,-3.5633,-3.5632,-3.5632,-3.5632,-3.5829,-3.5837,-3.5833,-3.5848,-3.5864,-3.5836,-3.586,-3.5833,-3.5808,-3.5825,-3.5828,-3.5827,-3.5821,-3.5829,-3.5829,-3.583,-3.583,-3.583,-3.583,-3.5921,-3.5914,-3.5937,-3.5937,-3.5942,-3.5946,-3.5926,-3.5931,-3.5928,-3.5907,-3.5907,-3.5873,-3.5764,-3.5736,-3.5835,-3.5834,-3.5834,-3.5833,-3.5833,-3.6041,-3.601,-3.6046,-3.6052,-3.605,-3.6068,-3.6035,-3.6047,-3.6047,-3.606,-3.6024,-3.5948,-3.5929,-3.5919,-3.5896,-3.603,-3.603,-3.603,-3.603,-3.6114,-3.6103,-3.6135,-3.6145,-3.6153,-3.6128,-3.617,-3.6157,-3.6138,-3.6137,-3.6115,-3.6082,-3.6073,-3.606,-3.6047,-3.6024,-3.6188,-3.6188,-3.6188,-3.6186,-3.6175,-3.6215,-3.6198,-3.6196,-3.6195,-3.6234,-3.6248,-3.6221,-3.6194,-3.6135,-3.6128,-3.6076,-3.6061,-3.6029,-3.601,-3.5968,0,0]},{"header":{"parameterUnit":"m.s-1","parameterCategory":1,"la1":30.2992,"la2":30.254,"lo1":-89.0895,"lo2":-89.0443,"dy":0.0025,"dx":0.0025,"nx":19,"ny":19,"refTime":"2026-05-16T03:00:00:Z","depth":0,"parameterNumber":3,"parameterNumberName":"V-component_of_WINDS"},"data":[0,0,0,4.8353,4.8352,4.8328,4.8328,4.8296,4.8295,0,0,0,0,0,0,0,0,0,0,0,4.8361,4.836,4.8353,4.8352,4.8328,4.8328,4.8296,4.8295,0,0,0,0,0,0,0,0,0,0,0,4.8361,4.836,4.836,4.8352,4.8328,4.8328,4.8296,4.8314,0,0,0,0,0,0,0,0,0,0,4.8338,4.8346,4.8361,4.836,4.8352,4.8328,4.8328,4.8315,4.8313,4.8306,0,4.8302,0,4.8298,4.8293,4.8293,0,0,0,4.8351,4.8347,4.8341,4.836,4.8352,4.8328,4.8339,4.8314,4.8312,4.8304,4.8302,4.83,4.8298,4.8293,4.8293,4.8263,4.8263,0,0,4.8353,4.8356,4.8342,4.8339,4.8345,4.834,4.8338,4.8312,4.831,4.8302,4.83,4.8297,4.8293,4.8292,4.8263,4.8263,0,0,0,4.8357,4.8357,4.8351,4.8341,4.8337,4.8339,4.8337,4.8311,4.8309,4.8299,4.8297,4.8293,4.8292,4.8263,4.8263,4.8263,0,0,0,4.8358,4.836,4.8352,4.8353,4.8337,4.8324,4.8336,4.831,4.8307,4.8297,4.8293,4.8292,4.8264,4.8263,4.8263,4.8262,0,0,0,4.8362,4.836,4.8357,4.8353,4.8343,4.8324,4.832,4.831,4.8306,4.8293,4.8292,4.8264,4.8263,4.8264,4.8262,4.8256,0,0,0,4.8366,4.8355,4.8357,4.8344,4.8344,4.8325,4.8321,4.8306,4.8294,4.8292,4.8264,4.8263,4.8264,4.8262,4.8256,4.8251,4.8249,0,0,4.8354,4.8354,4.8346,4.8347,4.8329,4.8328,4.8309,4.8295,4.8289,4.8272,4.8271,4.8263,4.8262,4.8256,4.8239,4.8238,0,0,0,4.8343,4.8337,4.8332,4.8323,4.8313,4.8304,4.8293,4.8288,4.8273,4.8282,4.8259,4.8258,4.8254,4.8252,4.8251,4.8247,4.8262,4.8262,4.8262,4.8329,4.8325,4.8312,4.8305,4.8296,4.8286,4.8278,4.8269,4.8266,4.8261,4.8255,4.8246,4.8243,4.8242,4.8239,4.8252,4.8252,4.8252,4.8252,4.831,4.8302,4.8301,4.8287,4.8283,4.8271,4.8261,4.8259,4.8247,4.8249,4.8245,4.8248,4.8241,4.8238,4.8252,4.8252,4.8252,4.8252,4.8252,4.83,4.8296,4.8292,4.8279,4.827,4.8263,4.8253,4.8248,4.8244,4.8241,4.8235,4.8235,4.8234,4.8238,4.8238,4.8238,4.8238,4.8238,4.8238,4.8292,4.8287,4.8279,4.827,4.8265,4.8257,4.8248,4.8241,4.8233,4.8231,4.8231,4.8229,4.8242,4.8245,4.8238,4.8238,4.8238,4.8238,4.8238,4.8274,4.8278,4.8266,4.8261,4.825,4.8242,4.8238,4.8226,4.822,4.8215,4.8214,4.8225,4.8223,4.8224,4.8227,4.8215,4.8215,4.8215,4.8215,4.8265,4.8265,4.8253,4.8245,4.8237,4.8233,4.8219,4.8212,4.8205,4.8202,4.8203,4.8206,4.8207,4.8205,4.8207,4.8209,4.8193,4.8193,4.8193,4.8254,4.8254,4.8243,4.8239,4.823,4.8223,4.821,4.8201,4.8193,4.8192,4.8199,4.82,4.8205,4.8207,4.8205,4.8207,4.8211,0,0]}]]